Location: Maddington
(51.2000°N, 1.9167°W)
Time: 15:37:49
(UTC+00:00)

Cosmos 1125 Rocket - Pass Details

Date: 24 June 2021
Orbit: 757 x 780 km, 74.0° (Epoch: 25 July)

Event Time Altitude Azimuth Distance (km) Brightness Sun altitude
Rises 23:39:41 0° 340° (NNW) 3,246 8.4 -15.1°
Reaches altitude 10° 23:42:44 10° 357° (N) 2,321 7.4 -15.2°
Maximum altitude 23:46:32 20° 44° (NE) 1,744 5.8 -15.2°
Drops below altitude 10° 23:50:21 10° 90° (E) 2,323 5.9 -15.3°
Sets 23:53:22 0° 108° (ESE) 3,251 6.5 -15.3°
